date,time,SUV Intensity [MED/Hr],UV Index,Daily total [MED],Since Last [MED]
21/09/2023,00:01:32,0.000,0.0,0.0,0.0
21/09/2023,00:02:32,-0.000,0.0,0.0,0.0
21/09/2023,00:03:32,0.000,0.0,0.0,0.0
21/09/2023,00:04:31,0.000,0.0,0.0,0.0
21/09/2023,00:05:31,0.000,0.0,0.0,0.0
21/09/2023,00:06:32,0.000,0.0,0.0,0.0
21/09/2023,00:07:32,-0.001,0.0,0.0,0.0
21/09/2023,00:08:31,0.000,0.0,0.0,0.0
21/09/2023,00:09:32,-0.000,0.0,0.0,0.0
21/09/2023,00:10:31,-0.000,0.0,0.0,0.0
21/09/2023,00:11:32,0.000,0.0,0.0,0.0
21/09/2023,00:12:31,-0.001,0.0,0.0,0.0
21/09/2023,00:13:32,-0.001,0.0,0.0,0.0
21/09/2023,00:14:31,-0.001,0.0,0.0,0.0
21/09/2023,00:15:31,0.000,0.0,0.0,0.0
21/09/2023,00:16:32,0.001,0.0,0.0,0.0
21/09/2023,00:17:31,0.001,0.0,0.0,0.0
21/09/2023,00:18:31,0.000,0.0,0.0,0.0
21/09/2023,00:19:32,-0.001,0.0,0.0,0.0
21/09/2023,00:20:31,0.000,0.0,0.0,0.0
21/09/2023,00:21:32,0.001,0.0,0.0,0.0
21/09/2023,00:22:31,0.000,0.0,0.0,0.0
21/09/2023,00:23:31,0.001,0.0,0.0,0.0
21/09/2023,00:24:32,0.000,0.0,0.0,0.0
21/09/2023,00:25:31,-0.001,0.0,0.0,0.0
21/09/2023,00:26:32,0.000,0.0,0.0,0.0
21/09/2023,00:27:29,0.001,0.0,0.0,0.0
21/09/2023,00:28:30,0.001,0.0,0.0,0.0
21/09/2023,00:29:32,-0.000,0.0,0.0,0.0
21/09/2023,00:30:32,0.000,0.0,0.0,0.0
21/09/2023,00:31:31,-0.000,0.0,0.0,0.0
21/09/2023,00:32:32,0.000,0.0,0.0,0.0
21/09/2023,00:33:31,-0.000,0.0,0.0,0.0
21/09/2023,00:34:31,0.000,0.0,0.0,0.0
21/09/2023,00:35:30,-0.000,0.0,0.0,0.0
21/09/2023,00:36:29,0.000,0.0,0.0,0.0
21/09/2023,00:37:32,0.000,0.0,0.0,0.0
21/09/2023,00:38:31,0.001,0.0,0.0,0.0
21/09/2023,00:39:32,0.001,0.0,0.0,0.0
21/09/2023,00:40:32,0.000,0.0,0.0,0.0
21/09/2023,00:41:32,0.000,0.0,0.0,0.0
21/09/2023,00:42:31,-0.000,0.0,0.0,0.0
21/09/2023,00:43:31,-0.000,0.0,0.0,0.0
21/09/2023,00:44:31,0.000,0.0,0.0,0.0
21/09/2023,00:45:31,0.000,0.0,0.0,0.0
21/09/2023,00:46:33,0.000,0.0,0.0,0.0
21/09/2023,00:47:32,0.000,0.0,0.0,0.0
21/09/2023,00:48:31,0.000,0.0,0.0,0.0
21/09/2023,00:49:31,0.000,0.0,0.0,0.0
21/09/2023,00:50:32,0.000,0.0,0.0,0.0
21/09/2023,00:51:31,0.000,0.0,0.0,0.0
21/09/2023,00:52:31,0.001,0.0,0.0,0.0
21/09/2023,00:53:31,-0.000,0.0,0.0,0.0
21/09/2023,00:54:31,-0.000,0.0,0.0,0.0
21/09/2023,00:55:32,0.000,0.0,0.0,0.0
21/09/2023,00:56:31,-0.000,0.0,0.0,0.0
21/09/2023,00:57:29,-0.001,0.0,0.0,0.0
21/09/2023,00:58:30,0.000,0.0,0.0,0.0
21/09/2023,00:59:32,-0.001,0.0,0.0,0.0
21/09/2023,01:00:31,0.000,0.0,0.0,0.0
21/09/2023,01:01:30,-0.001,0.0,0.0,0.0
21/09/2023,01:02:30,0.000,0.0,0.0,0.0
21/09/2023,01:03:31,0.001,0.0,0.0,0.0
21/09/2023,01:04:31,0.000,0.0,0.0,0.0
21/09/2023,01:05:31,0.000,0.0,0.0,0.0
21/09/2023,01:06:31,0.000,0.0,0.0,0.0
21/09/2023,01:07:31,0.002,0.0,0.0,0.0
21/09/2023,01:08:31,0.001,0.0,0.0,0.0
21/09/2023,01:09:31,0.000,0.0,0.0,0.0
21/09/2023,01:10:32,0.000,0.0,0.0,0.0
21/09/2023,01:11:31,0.001,0.0,0.0,0.0
21/09/2023,01:12:32,0.000,0.0,0.0,0.0
21/09/2023,01:13:31,0.000,0.0,0.0,0.0
21/09/2023,01:14:32,0.000,0.0,0.0,0.0
21/09/2023,01:15:31,-0.000,0.0,0.0,0.0
21/09/2023,01:16:31,0.000,0.0,0.0,0.0
21/09/2023,01:17:31,-0.000,0.0,0.0,0.0
21/09/2023,01:18:31,0.000,0.0,0.0,0.0
21/09/2023,01:19:32,0.000,0.0,0.0,0.0
21/09/2023,01:20:31,-0.000,0.0,0.0,0.0
21/09/2023,01:21:31,-0.000,0.0,0.0,0.0
21/09/2023,01:22:32,-0.000,0.0,0.0,0.0
21/09/2023,01:23:31,0.000,0.0,0.0,0.0
21/09/2023,01:24:31,0.000,0.0,0.0,0.0
21/09/2023,01:25:32,0.000,0.0,0.0,0.0
21/09/2023,01:26:31,-0.000,0.0,0.0,0.0
21/09/2023,01:27:31,-0.000,0.0,0.0,0.0
21/09/2023,01:28:31,0.000,0.0,0.0,0.0
21/09/2023,01:29:32,0.001,0.0,0.0,0.0
21/09/2023,01:30:31,0.001,0.0,0.0,0.0
21/09/2023,01:31:31,0.001,0.0,0.0,0.0
21/09/2023,01:32:32,0.001,0.0,0.0,0.0
21/09/2023,01:33:29,0.000,0.0,0.0,0.0
21/09/2023,01:34:30,0.000,0.0,0.0,0.0
21/09/2023,01:35:32,0.001,0.0,0.0,0.0
21/09/2023,01:36:31,0.000,0.0,0.0,0.0
21/09/2023,01:37:32,0.000,0.0,0.0,0.0
21/09/2023,01:38:31,0.001,0.0,0.0,0.0
21/09/2023,01:39:29,0.000,0.0,0.0,0.0
21/09/2023,01:40:30,0.001,0.0,0.0,0.0
21/09/2023,01:41:31,0.000,0.0,0.0,0.0
21/09/2023,01:42:32,0.000,0.0,0.0,0.0
21/09/2023,01:43:31,0.000,0.0,0.0,0.0
21/09/2023,01:44:31,0.000,0.0,0.0,0.0
21/09/2023,01:45:31,-0.000,0.0,0.0,0.0
21/09/2023,01:46:31,0.001,0.0,0.0,0.0
21/09/2023,01:47:32,0.000,0.0,0.0,0.0
21/09/2023,01:48:31,0.000,0.0,0.0,0.0
21/09/2023,01:49:31,0.000,0.0,0.0,0.0
21/09/2023,01:50:32,0.001,0.0,0.0,0.0
21/09/2023,01:51:31,0.001,0.0,0.0,0.0
21/09/2023,01:52:32,0.001,0.0,0.0,0.0
21/09/2023,01:53:32,0.001,0.0,0.0,0.0
21/09/2023,01:54:31,0.000,0.0,0.0,0.0
21/09/2023,01:55:32,0.001,0.0,0.0,0.0
21/09/2023,01:56:31,0.001,0.0,0.0,0.0
21/09/2023,01:57:32,-0.000,0.0,0.0,0.0
21/09/2023,01:58:31,0.001,0.0,0.0,0.0
21/09/2023,01:59:32,0.001,0.0,0.0,0.0
21/09/2023,02:00:32,0.001,0.0,0.0,0.0
21/09/2023,02:01:31,0.000,0.0,0.0,0.0
21/09/2023,02:02:32,0.001,0.0,0.0,0.0
21/09/2023,02:03:31,0.002,0.0,0.0,0.0
21/09/2023,02:04:31,0.000,0.0,0.0,0.0
21/09/2023,02:05:32,0.001,0.0,0.0,0.0
21/09/2023,02:06:32,0.001,0.0,0.0,0.0
21/09/2023,02:07:32,0.000,0.0,0.0,0.0
21/09/2023,02:08:31,-0.001,0.0,0.0,0.0
21/09/2023,02:09:32,0.000,0.0,0.0,0.0
21/09/2023,02:10:31,0.001,0.0,0.0,0.0
21/09/2023,02:11:31,0.001,0.0,0.0,0.0
21/09/2023,02:12:32,0.001,0.0,0.0,0.0
21/09/2023,02:13:31,0.001,0.0,0.0,0.0
21/09/2023,02:14:32,0.001,0.0,0.0,0.0
21/09/2023,02:15:32,0.001,0.0,0.0,0.0
21/09/2023,02:16:31,0.001,0.0,0.0,0.0
21/09/2023,02:17:32,0.001,0.0,0.0,0.0
21/09/2023,02:18:31,-0.000,0.0,0.0,0.0
21/09/2023,02:19:31,0.001,0.0,0.0,0.0
21/09/2023,02:20:32,0.000,0.0,0.0,0.0
21/09/2023,02:21:31,0.000,0.0,0.0,0.0
21/09/2023,02:22:31,0.000,0.0,0.0,0.0
21/09/2023,02:23:32,0.002,0.0,0.0,0.0
21/09/2023,02:24:31,0.001,0.0,0.0,0.0
21/09/2023,02:25:32,0.000,0.0,0.0,0.0
21/09/2023,02:26:31,0.001,0.0,0.0,0.0
21/09/2023,02:27:31,0.000,0.0,0.0,0.0
21/09/2023,02:28:31,0.001,0.0,0.0,0.0
21/09/2023,02:29:31,0.000,0.0,0.0,0.0
21/09/2023,02:30:32,0.000,0.0,0.0,0.0
21/09/2023,02:31:31,0.001,0.0,0.0,0.0
21/09/2023,02:32:31,0.001,0.0,0.0,0.0
21/09/2023,02:33:31,0.001,0.0,0.0,0.0
21/09/2023,02:34:31,0.001,0.0,0.0,0.0
21/09/2023,02:35:32,0.001,0.0,0.0,0.0
21/09/2023,02:36:31,0.002,0.0,0.0,0.0
21/09/2023,02:37:32,0.000,0.0,0.0,0.0
21/09/2023,02:38:31,0.000,0.0,0.0,0.0
21/09/2023,02:39:32,0.001,0.0,0.0,0.0
21/09/2023,02:40:32,0.001,0.0,0.0,0.0
21/09/2023,02:41:32,0.000,0.0,0.0,0.0
21/09/2023,02:42:31,0.001,0.0,0.0,0.0
21/09/2023,02:43:31,0.001,0.0,0.0,0.0
21/09/2023,02:44:32,0.001,0.0,0.0,0.0
21/09/2023,02:45:32,0.001,0.0,0.0,0.0
21/09/2023,02:46:32,-0.000,0.0,0.0,0.0
21/09/2023,02:47:32,0.002,0.0,0.0,0.0
21/09/2023,02:48:31,0.001,0.0,0.0,0.0
21/09/2023,02:49:31,0.001,0.0,0.0,0.0
21/09/2023,02:50:31,-0.000,0.0,0.0,0.0
21/09/2023,02:51:32,0.001,0.0,0.0,0.0
21/09/2023,02:52:31,0.001,0.0,0.0,0.0
21/09/2023,02:53:31,0.000,0.0,0.0,0.0
21/09/2023,02:54:32,0.001,0.0,0.0,0.0
21/09/2023,02:55:31,0.001,0.0,0.0,0.0
21/09/2023,02:56:31,0.002,0.0,0.0,0.0
21/09/2023,02:57:32,-0.000,0.0,0.0,0.0
21/09/2023,02:58:32,0.000,0.0,0.0,0.0
21/09/2023,02:59:32,0.001,0.0,0.0,0.0
21/09/2023,03:00:31,0.000,0.0,0.0,0.0
21/09/2023,03:01:32,0.002,0.0,0.0,0.0
21/09/2023,03:02:32,0.001,0.0,0.0,0.0
21/09/2023,03:03:32,-0.000,0.0,0.0,0.0
21/09/2023,03:04:31,0.001,0.0,0.0,0.0
21/09/2023,03:05:31,0.001,0.0,0.0,0.0
21/09/2023,03:06:32,0.001,0.0,0.0,0.0
21/09/2023,03:07:32,0.001,0.0,0.0,0.0
21/09/2023,03:08:33,0.002,0.0,0.0,0.0
21/09/2023,03:09:32,0.000,0.0,0.0,0.0
21/09/2023,03:10:31,0.001,0.0,0.0,0.0
21/09/2023,03:11:32,0.001,0.0,0.0,0.0
21/09/2023,03:12:32,0.001,0.0,0.0,0.0
21/09/2023,03:13:31,0.001,0.0,0.0,0.0
21/09/2023,03:14:31,0.001,0.0,0.0,0.0
21/09/2023,03:15:32,0.001,0.0,0.0,0.0
21/09/2023,03:16:32,0.001,0.0,0.0,0.0
21/09/2023,03:17:31,0.001,0.0,0.0,0.0
21/09/2023,03:18:31,0.001,0.0,0.0,0.0
21/09/2023,03:19:32,0.001,0.0,0.0,0.0
21/09/2023,03:20:31,0.001,0.0,0.0,0.0
21/09/2023,03:21:31,0.001,0.0,0.0,0.0
21/09/2023,03:22:32,0.002,0.0,0.0,0.0
21/09/2023,03:23:31,0.001,0.0,0.0,0.0
21/09/2023,03:24:31,0.000,0.0,0.0,0.0
21/09/2023,03:25:32,0.000,0.0,0.0,0.0
21/09/2023,03:26:32,0.000,0.0,0.0,0.0
21/09/2023,03:27:32,0.001,0.0,0.0,0.0
21/09/2023,03:28:31,0.002,0.0,0.0,0.0
21/09/2023,03:29:31,-0.000,0.0,0.0,0.0
21/09/2023,03:30:32,0.002,0.0,0.0,0.0
21/09/2023,03:31:32,0.000,0.0,0.0,0.0
21/09/2023,03:32:31,-0.001,0.0,0.0,0.0
21/09/2023,03:33:32,0.001,0.0,0.0,0.0
21/09/2023,03:34:31,0.002,0.0,0.0,0.0
21/09/2023,03:35:32,0.001,0.0,0.0,0.0
21/09/2023,03:36:32,0.001,0.0,0.0,0.0
21/09/2023,03:37:32,0.000,0.0,0.0,0.0
21/09/2023,03:38:31,0.001,0.0,0.0,0.0
21/09/2023,03:39:32,0.002,0.0,0.0,0.0
21/09/2023,03:40:31,0.001,0.0,0.0,0.0
21/09/2023,03:41:31,0.002,0.0,0.0,0.0
21/09/2023,03:42:32,0.001,0.0,0.0,0.0
21/09/2023,03:43:32,0.002,0.0,0.0,0.0
21/09/2023,03:44:32,0.001,0.0,0.0,0.0
21/09/2023,03:45:32,0.000,0.0,0.0,0.0
21/09/2023,03:46:31,0.001,0.0,0.0,0.0
21/09/2023,03:47:32,0.002,0.0,0.0,0.0
21/09/2023,03:48:31,0.002,0.0,0.0,0.0
21/09/2023,03:49:31,0.001,0.0,0.0,0.0
21/09/2023,03:50:31,0.000,0.0,0.0,0.0
21/09/2023,03:51:32,0.001,0.0,0.0,0.0
21/09/2023,03:52:30,-0.000,0.0,0.0,0.0
21/09/2023,03:53:30,0.001,0.0,0.0,0.0
21/09/2023,03:54:32,0.001,0.0,0.0,0.0
21/09/2023,03:55:32,0.001,0.0,0.0,0.0
21/09/2023,03:56:31,0.001,0.0,0.0,0.0
21/09/2023,03:57:32,0.002,0.0,0.0,0.0
21/09/2023,03:58:31,0.002,0.0,0.0,0.0
21/09/2023,03:59:32,0.001,0.0,0.0,0.0
21/09/2023,04:00:31,0.001,0.0,0.0,0.0
21/09/2023,04:01:32,0.001,0.0,0.0,0.0
21/09/2023,04:02:31,0.001,0.0,0.0,0.0
21/09/2023,04:03:31,0.000,0.0,0.0,0.0
21/09/2023,04:04:31,0.001,0.0,0.0,0.0
21/09/2023,04:05:32,0.001,0.0,0.0,0.0
21/09/2023,04:06:29,0.001,0.0,0.0,0.0
21/09/2023,04:07:29,0.002,0.0,0.0,0.0
21/09/2023,04:08:54,0.001,0.0,0.0,0.0
21/09/2023,04:09:31,0.001,0.0,0.0,0.0
21/09/2023,04:10:32,0.001,0.0,0.0,0.0
21/09/2023,04:11:32,0.001,0.0,0.0,0.0
21/09/2023,04:12:32,0.000,0.0,0.0,0.0
21/09/2023,04:13:32,0.001,0.0,0.0,0.0
21/09/2023,04:14:32,0.001,0.0,0.0,0.0
21/09/2023,04:15:31,0.001,0.0,0.0,0.0
21/09/2023,04:16:32,0.001,0.0,0.0,0.0
21/09/2023,04:17:32,0.001,0.0,0.0,0.0
21/09/2023,04:18:32,0.001,0.0,0.0,0.0
21/09/2023,04:19:31,0.001,0.0,0.0,0.0
21/09/2023,04:20:31,0.001,0.0,0.0,0.0
21/09/2023,04:21:32,0.002,0.0,0.0,0.0
21/09/2023,04:22:33,0.002,0.0,0.0,0.0
21/09/2023,04:23:33,0.001,0.0,0.0,0.0
21/09/2023,04:24:32,0.002,0.0,0.0,0.0
21/09/2023,04:25:31,0.002,0.0,0.0,0.0
21/09/2023,04:26:32,0.000,0.0,0.0,0.0
21/09/2023,04:27:32,0.002,0.0,0.0,0.0
21/09/2023,04:28:31,0.001,0.0,0.0,0.0
21/09/2023,04:29:31,0.001,0.0,0.0,0.0
21/09/2023,04:30:31,0.002,0.0,0.0,0.0
21/09/2023,04:31:32,0.001,0.0,0.0,0.0
21/09/2023,04:32:31,0.000,0.0,0.0,0.0
21/09/2023,04:33:32,0.001,0.0,0.0,0.0
21/09/2023,04:34:32,0.001,0.0,0.0,0.0
21/09/2023,04:35:32,0.001,0.0,0.0,0.0
21/09/2023,04:36:32,0.001,0.0,0.0,0.0
21/09/2023,04:37:31,0.001,0.0,0.0,0.0
21/09/2023,04:38:32,0.000,0.0,0.0,0.0
21/09/2023,04:39:31,0.001,0.0,0.0,0.0
21/09/2023,04:40:32,-0.000,0.0,0.0,0.0
21/09/2023,04:41:31,0.001,0.0,0.0,0.0
21/09/2023,04:42:31,0.001,0.0,0.0,0.0
21/09/2023,04:43:32,0.001,0.0,0.0,0.0
21/09/2023,04:44:31,0.000,0.0,0.0,0.0
21/09/2023,04:45:31,0.001,0.0,0.0,0.0
21/09/2023,04:46:32,0.001,0.0,0.0,0.0
21/09/2023,04:47:32,0.000,0.0,0.0,0.0
21/09/2023,04:48:31,0.002,0.0,0.0,0.0
21/09/2023,04:49:32,0.002,0.0,0.0,0.0
21/09/2023,04:50:32,0.000,0.0,0.0,0.0
21/09/2023,04:51:31,0.001,0.0,0.0,0.0
21/09/2023,04:52:32,0.002,0.0,0.0,0.0
21/09/2023,04:53:31,0.001,0.0,0.0,0.0
21/09/2023,04:54:32,0.000,0.0,0.0,0.0
21/09/2023,04:55:31,0.001,0.0,0.0,0.0
21/09/2023,04:56:32,0.001,0.0,0.0,0.0
21/09/2023,04:57:32,0.000,0.0,0.0,0.0
21/09/2023,04:58:31,0.001,0.0,0.0,0.0
21/09/2023,04:59:32,0.001,0.0,0.0,0.0
21/09/2023,05:00:31,0.001,0.0,0.0,0.0
21/09/2023,05:01:32,0.001,0.0,0.0,0.0
21/09/2023,05:02:31,0.002,0.0,0.0,0.0
21/09/2023,05:03:32,0.002,0.0,0.0,0.0
21/09/2023,05:04:32,0.000,0.0,0.0,0.0
21/09/2023,05:05:31,0.002,0.0,0.0,0.0
21/09/2023,05:06:32,0.001,0.0,0.0,0.0
21/09/2023,05:07:32,0.002,0.0,0.0,0.0
21/09/2023,05:08:32,0.001,0.0,0.0,0.0
21/09/2023,05:09:31,0.001,0.0,0.0,0.0
21/09/2023,05:10:32,0.001,0.0,0.0,0.0
21/09/2023,05:11:32,0.001,0.0,0.0,0.0
21/09/2023,05:12:32,0.001,0.0,0.0,0.0
21/09/2023,05:13:32,0.002,0.0,0.0,0.0
21/09/2023,05:14:31,0.001,0.0,0.0,0.0
21/09/2023,05:15:31,0.001,0.0,0.0,0.0
21/09/2023,05:16:32,0.001,0.0,0.0,0.0
21/09/2023,05:17:31,0.001,0.0,0.0,0.0
21/09/2023,05:18:31,0.001,0.0,0.0,0.0
21/09/2023,05:19:30,0.001,0.0,0.0,0.0
21/09/2023,05:20:30,0.001,0.0,0.0,0.0
21/09/2023,05:21:32,0.002,0.0,0.0,0.0
21/09/2023,05:22:31,0.002,0.0,0.0,0.0
21/09/2023,05:23:32,0.001,0.0,0.0,0.0
21/09/2023,05:24:32,0.002,0.0,0.0,0.0
21/09/2023,05:25:31,0.001,0.0,0.0,0.0
21/09/2023,05:26:32,0.001,0.0,0.0,0.0
21/09/2023,05:27:32,0.002,0.0,0.0,0.0
21/09/2023,05:28:32,0.002,0.0,0.0,0.0
21/09/2023,05:29:30,0.001,0.0,0.0,0.0
21/09/2023,05:30:30,0.001,0.0,0.0,0.0
21/09/2023,05:31:32,0.001,0.0,0.0,0.0
21/09/2023,05:32:32,0.002,0.0,0.0,0.0
21/09/2023,05:33:31,0.000,0.0,0.0,0.0
21/09/2023,05:34:32,0.002,0.0,0.0,0.0
21/09/2023,05:35:32,0.002,0.0,0.0,0.0
21/09/2023,05:36:32,0.003,0.0,0.0,0.0
21/09/2023,05:37:32,0.002,0.0,0.0,0.0
21/09/2023,05:38:32,0.002,0.0,0.0,0.0
21/09/2023,05:39:31,0.002,0.0,0.0,0.0
21/09/2023,05:40:32,0.002,0.0,0.0,0.0
21/09/2023,05:41:31,0.002,0.0,0.0,0.0
21/09/2023,05:42:31,0.003,0.0,0.0,0.0
21/09/2023,05:43:32,0.002,0.0,0.0,0.0
21/09/2023,05:44:31,0.003,0.0,0.0,0.0
21/09/2023,05:45:32,0.003,0.0,0.0,0.0
21/09/2023,05:46:31,0.003,0.0,0.0,0.0
21/09/2023,05:47:32,0.003,0.0,0.0,0.0
21/09/2023,05:48:32,0.003,0.0,0.0,0.0
21/09/2023,05:49:32,0.003,0.0,0.0,0.0
21/09/2023,05:50:32,0.004,0.0,0.0,0.0
21/09/2023,05:51:32,0.004,0.0,0.0,0.0
21/09/2023,05:52:32,0.004,0.0,0.0,0.0
21/09/2023,05:53:32,0.004,0.0,0.0,0.0
21/09/2023,05:54:32,0.005,0.0,0.0,0.0
21/09/2023,05:55:32,0.005,0.0,0.0,0.0
21/09/2023,05:56:32,0.005,0.0,0.0,0.0
21/09/2023,05:57:32,0.005,0.0,0.0,0.0
21/09/2023,05:58:31,0.006,0.0,0.0,0.0
21/09/2023,05:59:31,0.006,0.0,0.0,0.0
21/09/2023,06:00:32,0.007,0.0,0.0,0.0
21/09/2023,06:01:32,0.006,0.0,0.0,0.0
21/09/2023,06:02:32,0.006,0.0,0.0,0.0
21/09/2023,06:03:32,0.007,0.0,0.0,0.0
21/09/2023,06:04:32,0.006,0.0,0.001,0.001
21/09/2023,06:05:32,0.008,0.0,0.001,0.0
21/09/2023,06:06:32,0.009,0.0,0.001,0.0
21/09/2023,06:07:32,0.009,0.0,0.001,0.0
21/09/2023,06:08:32,0.009,0.0,0.001,0.0
21/09/2023,06:09:32,0.009,0.0,0.001,0.0
21/09/2023,06:10:32,0.010,0.0,0.001,0.0
21/09/2023,06:11:32,0.010,0.0,0.002,0.001
21/09/2023,06:12:32,0.010,0.0,0.002,0.0
21/09/2023,06:13:31,0.011,0.0,0.002,0.0
21/09/2023,06:14:31,0.012,0.0,0.002,0.0
21/09/2023,06:15:32,0.012,0.0,0.002,0.0
21/09/2023,06:16:32,0.013,0.0,0.003,0.001
21/09/2023,06:17:32,0.013,0.0,0.003,0.0
21/09/2023,06:18:32,0.014,0.0,0.003,0.0
21/09/2023,06:19:32,0.015,0.0,0.003,0.0
21/09/2023,06:20:32,0.015,0.0,0.003,0.0
21/09/2023,06:21:32,0.015,0.0,0.004,0.001
21/09/2023,06:22:31,0.016,0.0,0.004,0.0
21/09/2023,06:23:32,0.016,0.0,0.004,0.0
21/09/2023,06:24:31,0.018,0.0,0.005,0.001
21/09/2023,06:25:32,0.018,0.0,0.005,0.0
21/09/2023,06:26:32,0.019,0.0,0.005,0.0
21/09/2023,06:27:32,0.018,0.0,0.005,0.0
21/09/2023,06:28:32,0.020,0.0,0.006,0.001
21/09/2023,06:29:32,0.022,0.0,0.006,0.0
21/09/2023,06:30:32,0.021,0.0,0.006,0.0
21/09/2023,06:31:31,0.023,0.0,0.007,0.001
21/09/2023,06:32:32,0.023,0.0,0.007,0.0
21/09/2023,06:33:32,0.024,0.0,0.008,0.001
21/09/2023,06:34:32,0.024,0.0,0.008,0.0
21/09/2023,06:35:32,0.025,0.0,0.008,0.0
21/09/2023,06:36:31,0.027,0.0,0.009,0.001
21/09/2023,06:37:32,0.028,0.0,0.009,0.0
21/09/2023,06:38:32,0.030,0.0,0.01,0.001
21/09/2023,06:39:32,0.030,0.0,0.01,0.0
21/09/2023,06:40:32,0.030,0.0,0.011,0.001
21/09/2023,06:41:32,0.030,0.0,0.011,0.0
21/09/2023,06:42:32,0.032,0.0,0.012,0.001
21/09/2023,06:43:32,0.033,0.0,0.012,0.0
21/09/2023,06:44:32,0.036,0.0,0.013,0.001
21/09/2023,06:45:32,0.034,0.0,0.013,0.0
21/09/2023,06:46:32,0.036,0.0,0.014,0.001
21/09/2023,06:47:32,0.037,0.0,0.015,0.001
21/09/2023,06:48:32,0.039,0.0,0.015,0.0
21/09/2023,06:49:31,0.040,0.0,0.016,0.001
21/09/2023,06:50:31,0.041,0.0,0.017,0.001
21/09/2023,06:51:32,0.041,0.0,0.017,0.0
21/09/2023,06:52:32,0.042,0.0,0.018,0.001
21/09/2023,06:53:32,0.044,0.0,0.019,0.001
21/09/2023,06:54:32,0.046,0.0,0.02,0.001
21/09/2023,06:55:32,0.047,0.0,0.02,0.0
21/09/2023,06:56:32,0.047,0.0,0.021,0.001
21/09/2023,06:57:32,0.050,0.0,0.022,0.001
21/09/2023,06:58:32,0.051,0.0,0.023,0.001
21/09/2023,06:59:32,0.052,0.0,0.024,0.001
21/09/2023,07:00:32,0.053,0.0,0.024,0.0
21/09/2023,07:01:32,0.055,0.0,0.025,0.001
21/09/2023,07:02:32,0.055,0.0,0.026,0.001
21/09/2023,07:03:32,0.058,0.0,0.027,0.001
21/09/2023,07:04:32,0.059,0.0,0.028,0.001
21/09/2023,07:05:32,0.061,0.0,0.029,0.001
21/09/2023,07:06:32,0.062,0.0,0.03,0.001
21/09/2023,07:07:32,0.064,0.0,0.031,0.001
21/09/2023,07:08:32,0.066,0.0,0.032,0.001
21/09/2023,07:09:32,0.067,0.0,0.033,0.001
21/09/2023,07:10:32,0.069,0.0,0.035,0.002
21/09/2023,07:11:32,0.069,0.0,0.036,0.001
21/09/2023,07:12:33,0.071,0.0,0.037,0.001
21/09/2023,07:13:32,0.074,0.0,0.038,0.001
21/09/2023,07:14:32,0.075,0.0,0.039,0.001
21/09/2023,07:15:32,0.075,0.0,0.041,0.002
21/09/2023,07:16:32,0.078,0.0,0.042,0.001
21/09/2023,07:17:32,0.080,0.0,0.043,0.001
21/09/2023,07:18:32,0.082,0.0,0.045,0.002
21/09/2023,07:19:32,0.083,0.0,0.046,0.001
21/09/2023,07:20:32,0.084,0.0,0.047,0.001
21/09/2023,07:21:32,0.087,0.0,0.049,0.002
21/09/2023,07:22:32,0.089,0.0,0.05,0.001
21/09/2023,07:23:32,0.090,0.0,0.052,0.002
21/09/2023,07:24:32,0.092,0.0,0.053,0.001
21/09/2023,07:25:32,0.094,0.0,0.055,0.002
21/09/2023,07:26:32,0.096,0.0,0.056,0.001
21/09/2023,07:27:32,0.098,0.0,0.058,0.002
21/09/2023,07:28:32,0.100,0.0,0.06,0.002
21/09/2023,07:29:32,0.102,0.0,0.061,0.001
21/09/2023,07:30:32,0.104,0.0,0.063,0.002
21/09/2023,07:31:32,0.107,0.0,0.065,0.002
21/09/2023,07:32:32,0.109,0.0,0.067,0.002
21/09/2023,07:33:32,0.111,0.0,0.068,0.001
21/09/2023,07:34:32,0.113,0.0,0.07,0.002
21/09/2023,07:35:32,0.115,0.0,0.072,0.002
21/09/2023,07:36:32,0.117,0.0,0.074,0.002
21/09/2023,07:37:31,0.119,0.0,0.076,0.002
21/09/2023,07:38:32,0.121,0.0,0.078,0.002
21/09/2023,07:39:32,0.125,0.0,0.08,0.002
21/09/2023,07:40:32,0.126,0.0,0.082,0.002
21/09/2023,07:41:32,0.127,0.0,0.084,0.002
21/09/2023,07:42:32,0.130,0.0,0.087,0.003
21/09/2023,07:43:32,0.133,0.0,0.089,0.002
21/09/2023,07:44:32,0.135,0.0,0.091,0.002
21/09/2023,07:45:31,0.137,0.0,0.093,0.002
21/09/2023,07:46:32,0.140,0.0,0.096,0.003
21/09/2023,07:47:32,0.143,0.0,0.098,0.002
21/09/2023,07:48:32,0.144,0.0,0.1,0.002
21/09/2023,07:49:32,0.148,0.0,0.103,0.003
21/09/2023,07:50:32,0.150,0.0,0.105,0.002
21/09/2023,07:51:32,0.153,0.0,0.108,0.003
21/09/2023,07:52:32,0.156,0.0,0.11,0.002
21/09/2023,07:53:32,0.158,0.0,0.113,0.003
21/09/2023,07:54:32,0.161,0.0,0.116,0.003
21/09/2023,07:55:32,0.166,0.0,0.118,0.002
21/09/2023,07:56:32,0.168,0.0,0.121,0.003
21/09/2023,07:57:32,0.170,0.0,0.124,0.003
21/09/2023,07:58:32,0.173,0.0,0.127,0.003
21/09/2023,07:59:32,0.176,0.0,0.13,0.003
21/09/2023,08:00:32,0.177,0.0,0.133,0.003
21/09/2023,08:01:32,0.181,0.0,0.136,0.003
21/09/2023,08:02:32,0.184,0.0,0.139,0.003
21/09/2023,08:03:32,0.187,0.0,0.142,0.003
21/09/2023,08:04:32,0.192,0.0,0.145,0.003
21/09/2023,08:05:32,0.194,0.0,0.148,0.003
21/09/2023,08:06:32,0.197,0.0,0.151,0.003
21/09/2023,08:07:32,0.200,0.0,0.155,0.004
21/09/2023,08:08:32,0.204,0.0,0.158,0.003
21/09/2023,08:09:32,0.206,0.0,0.161,0.003
21/09/2023,08:10:33,0.209,0.0,0.165,0.004
21/09/2023,08:11:33,0.213,0.0,0.168,0.003
21/09/2023,08:12:32,0.215,0.0,0.172,0.004
21/09/2023,08:13:32,0.218,1.0,0.176,0.004
21/09/2023,08:14:32,0.221,1.0,0.179,0.003
21/09/2023,08:15:32,0.225,1.0,0.183,0.004
21/09/2023,08:16:32,0.227,1.0,0.187,0.004
21/09/2023,08:17:32,0.229,1.0,0.191,0.004
21/09/2023,08:18:32,0.234,1.0,0.194,0.003
21/09/2023,08:19:32,0.237,1.0,0.198,0.004
21/09/2023,08:20:32,0.239,1.0,0.202,0.004
21/09/2023,08:21:32,0.243,1.0,0.206,0.004
21/09/2023,08:22:32,0.246,1.0,0.21,0.004
21/09/2023,08:23:32,0.251,1.0,0.215,0.005
21/09/2023,08:24:32,0.254,1.0,0.219,0.004
21/09/2023,08:25:33,0.257,1.0,0.223,0.004
21/09/2023,08:26:32,0.261,1.0,0.227,0.004
21/09/2023,08:27:32,0.266,1.0,0.232,0.005
21/09/2023,08:28:32,0.270,1.0,0.236,0.004
21/09/2023,08:29:37,0.275,1.0,0.241,0.005
21/09/2023,08:30:33,0.278,1.0,0.245,0.004
21/09/2023,08:31:32,0.282,1.0,0.25,0.005
21/09/2023,08:32:32,0.286,1.0,0.255,0.005
21/09/2023,08:33:32,0.289,1.0,0.26,0.005
21/09/2023,08:34:32,0.292,1.0,0.264,0.004
21/09/2023,08:35:32,0.293,1.0,0.269,0.005
21/09/2023,08:36:33,0.297,1.0,0.274,0.005
21/09/2023,08:37:32,0.301,1.0,0.279,0.005
21/09/2023,08:38:32,0.304,1.0,0.284,0.005
21/09/2023,08:39:32,0.308,1.0,0.289,0.005
21/09/2023,08:40:32,0.313,1.0,0.294,0.005
21/09/2023,08:41:32,0.319,1.0,0.3,0.006
21/09/2023,08:42:32,0.322,1.0,0.305,0.005
21/09/2023,08:43:32,0.326,1.0,0.31,0.005
21/09/2023,08:44:32,0.328,1.0,0.316,0.006
21/09/2023,08:45:32,0.332,1.0,0.321,0.005
21/09/2023,08:46:32,0.339,1.0,0.327,0.006
21/09/2023,08:47:32,0.344,1.0,0.333,0.006
21/09/2023,08:48:32,0.349,1.0,0.339,0.006
21/09/2023,08:49:32,0.356,1.0,0.344,0.005
21/09/2023,08:50:32,0.364,1.0,0.35,0.006
21/09/2023,08:51:30,0.368,1.0,0.356,0.006
21/09/2023,08:52:30,0.373,1.0,0.363,0.007
21/09/2023,08:53:32,0.380,1.0,0.369,0.006
21/09/2023,08:54:32,0.383,1.0,0.375,0.006
21/09/2023,08:55:32,0.389,1.0,0.382,0.007
21/09/2023,08:56:32,0.395,1.0,0.388,0.006
21/09/2023,08:57:32,0.400,1.0,0.395,0.007
21/09/2023,08:58:32,0.406,1.0,0.402,0.007
21/09/2023,08:59:32,0.412,1.0,0.408,0.006
21/09/2023,09:00:33,0.419,1.0,0.415,0.007
21/09/2023,09:01:32,0.426,1.0,0.422,0.007
21/09/2023,09:02:32,0.432,1.0,0.43,0.008
21/09/2023,09:03:32,0.438,1.0,0.437,0.007
21/09/2023,09:04:32,0.447,1.0,0.444,0.007
21/09/2023,09:05:32,0.452,1.0,0.452,0.008
21/09/2023,09:06:32,0.455,1.0,0.459,0.007
21/09/2023,09:07:32,0.462,1.0,0.467,0.008
21/09/2023,09:08:32,0.467,1.0,0.475,0.008
21/09/2023,09:09:33,0.473,1.0,0.482,0.007
21/09/2023,09:10:32,0.478,1.0,0.49,0.008
21/09/2023,09:11:32,0.483,1.0,0.498,0.008
21/09/2023,09:12:33,0.488,1.0,0.506,0.008
21/09/2023,09:13:32,0.491,1.0,0.515,0.009
21/09/2023,09:14:32,0.493,1.0,0.523,0.008
21/09/2023,09:15:32,0.501,1.0,0.531,0.008
21/09/2023,09:16:33,0.505,1.0,0.54,0.009
21/09/2023,09:17:32,0.511,1.0,0.548,0.008
21/09/2023,09:18:33,0.513,1.0,0.556,0.008
21/09/2023,09:19:32,0.519,1.0,0.565,0.009
21/09/2023,09:20:32,0.524,1.0,0.574,0.009
21/09/2023,09:21:32,0.527,1.0,0.583,0.009
21/09/2023,09:22:32,0.531,1.0,0.591,0.008
21/09/2023,09:23:33,0.535,1.0,0.6,0.009
21/09/2023,09:24:32,0.540,1.0,0.609,0.009
21/09/2023,09:25:32,0.546,1.0,0.618,0.009
21/09/2023,09:26:33,0.549,1.0,0.627,0.009
21/09/2023,09:27:32,0.556,1.0,0.637,0.01
21/09/2023,09:28:32,0.564,1.0,0.646,0.009
21/09/2023,09:29:32,0.570,1.0,0.655,0.009
21/09/2023,09:30:33,0.574,1.0,0.665,0.01
21/09/2023,09:31:32,0.581,1.0,0.674,0.009
21/09/2023,09:32:32,0.589,1.0,0.684,0.01
21/09/2023,09:33:32,0.597,1.0,0.694,0.01
21/09/2023,09:34:32,0.600,1.0,0.704,0.01
21/09/2023,09:35:32,0.607,1.0,0.714,0.01
21/09/2023,09:36:32,0.614,1.0,0.724,0.01
21/09/2023,09:37:32,0.621,1.0,0.735,0.011
21/09/2023,09:38:32,0.631,1.0,0.745,0.01
21/09/2023,09:39:32,0.636,1.0,0.756,0.011
21/09/2023,09:40:32,0.642,1.0,0.766,0.01
21/09/2023,09:41:33,0.650,1.0,0.777,0.011
21/09/2023,09:42:32,0.654,2.0,0.788,0.011
21/09/2023,09:43:33,0.660,2.0,0.799,0.011
21/09/2023,09:44:32,0.665,2.0,0.81,0.011
21/09/2023,09:45:32,0.672,2.0,0.821,0.011
21/09/2023,09:46:32,0.677,2.0,0.832,0.011
21/09/2023,09:47:32,0.681,2.0,0.844,0.012
21/09/2023,09:48:32,0.688,2.0,0.855,0.011
21/09/2023,09:49:32,0.693,2.0,0.867,0.012
21/09/2023,09:50:33,0.698,2.0,0.878,0.011
21/09/2023,09:51:32,0.702,2.0,0.89,0.012
21/09/2023,09:52:32,0.706,2.0,0.902,0.012
21/09/2023,09:53:30,0.712,2.0,0.913,0.011
21/09/2023,09:54:31,0.718,2.0,0.925,0.012
21/09/2023,09:55:32,0.721,2.0,0.937,0.012
21/09/2023,09:56:33,0.726,2.0,0.949,0.012
21/09/2023,09:57:32,0.732,2.0,0.962,0.013
21/09/2023,09:58:32,0.735,2.0,0.974,0.012
21/09/2023,09:59:32,0.742,2.0,0.986,0.012
21/09/2023,10:00:32,0.746,2.0,0.998,0.012
21/09/2023,10:01:33,0.755,2.0,1.011,0.013
21/09/2023,10:02:32,0.732,2.0,1.023,0.012
21/09/2023,10:03:33,0.649,1.0,1.035,0.012
21/09/2023,10:04:32,0.616,1.0,1.047,0.012
21/09/2023,10:05:32,0.551,1.0,1.056,0.009